Tupelo, MS

8:08 PM CDT on September 19, 2019 (GMT -0500)
Tupelo Regional

Weather History for KTUP - August, 2019

Change the Weather History Date:

Saturday, August 24, 2019

  Actual Average Record
Temperature  
Mean Temperature 84 °F 80 °F  
Max Temperature 93 °F 91 °F 103 °F (1938)
Min Temperature 74 °F 70 °F 56 °F (1930)
Degree Days  
Heating Degree Days 0 0  
Month to date heating degree days 0 0  
Since 1 June heating degree days 0 0  
Since 1 July heating degree days 0 0  
Cooling Degree Days 19 15  
Month to date cooling degree days 437 386  
Year to date cooling degree days 1739 1568  
Since 1 June cooling degree days 1378 1291  
Growing Degree Days 33 (Base 50)    
Moisture  
Dew Point 72 °F    
Average Humidity 73    
Maximum Humidity 93    
Minimum Humidity 52    
Precipitation  
Precipitation 1.26 in 0.09 in 2.00 in (2008)
Month to date precipitation 3.34 2.80  
Year to date precipitation 57.06 35.82  
Snow  
Snow 0.00 in 0.00 in - ()
Month to date snowfall 0.0 0.0  
Since 1 June snowfall 0.0 0.0  
Since 1 July snowfall 0.0 0.0  
Snow Depth 0.00 in    
Sea Level Pressure  
Sea Level Pressure 30.01 in    
Wind  
Wind Speed 4 mph (NE)    
Max Wind Speed 21 mph    
Max Gust Speed 25 mph    
Visibility 8 miles    
Events Fog , Rain , Thunderstorm    
T = Trace of Precipitation, MM = Missing Value Source: NWS Daily Summary

Daily Weather History Graph

Daily Weather History Graph

Search for Another Location

Airport or City:

Astronomy

Aug. 24, 2019 Rise Set
Actual Time 6:22 AM CDT 7:31 PM CDT
Civil Twilight 5:56 AM CDT 7:57 PM CDT
Nautical Twilight 5:25 AM CDT 8:28 PM CDT
Astronomical Twilight 4:53 AM CDT 9:00 PM CDT
Moon 12:20 AM CDT (8/24) 2:40 PM CDT (8/24)
Length of Visible Light 14h 01m
Length of Day
13h 09m
Last Quarter, 39% of the Moon is Illuminated
Aug 24
Last Quarter
Aug 30
New
Sep 5
First Quarter
Sep 13
Full
Sep 21
Last Quarter

Hourly Weather History & Observations

Time (CDT) Temp. Heat Index Dew Point Humidity Pressure Visibility Wind Dir Wind Speed Gust Speed Precip Events Conditions
12:53 AM 75.0 °F - 72.0 °F 90% 30.00 in 10.0 mi NE 4.6 mph - N/A   Overcast
1:53 AM 75.9 °F - 71.1 °F 85% 30.00 in 10.0 mi Calm Calm - N/A   Clear
2:53 AM 75.0 °F - 71.1 °F 87% 30.00 in 10.0 mi NE 4.6 mph - N/A   Overcast
3:10 AM 75.0 °F - 71.1 °F 87% 30.01 in 10.0 mi North 5.8 mph - N/A   Overcast
3:32 AM 73.9 °F - 71.1 °F 91% 30.01 in 10.0 mi North 6.9 mph - N/A   Mostly Cloudy
3:53 AM 73.9 °F - 71.1 °F 91% 29.99 in 10.0 mi North 5.8 mph - N/A   Partly Cloudy
4:53 AM 73.9 °F - 71.1 °F 91% 30.00 in 10.0 mi Calm Calm - N/A   Mostly Cloudy
5:53 AM 73.9 °F - 71.1 °F 91% 30.02 in 10.0 mi North 6.9 mph - N/A   Partly Cloudy
6:03 AM 73.9 °F - 71.1 °F 91% 30.03 in 10.0 mi NNE 5.8 mph - N/A   Scattered Clouds
6:17 AM 73.9 °F - 71.1 °F 91% 30.03 in 10.0 mi NE 5.8 mph - N/A   Mostly Cloudy
6:36 AM 73.9 °F - 71.1 °F 91% 30.03 in 10.0 mi NE 3.5 mph - N/A   Scattered Clouds
6:53 AM 73.9 °F - 70.0 °F 87% 30.03 in 10.0 mi NNE 4.6 mph - N/A   Partly Cloudy
7:10 AM 73.9 °F - 71.1 °F 91% 30.04 in 10.0 mi North 3.5 mph - N/A   Mostly Cloudy
7:21 AM 75.0 °F - 71.1 °F 87% 30.04 in 10.0 mi Calm Calm - N/A   Scattered Clouds
7:46 AM 75.0 °F - 71.1 °F 87% 30.05 in 10.0 mi NE 3.5 mph - N/A   Mostly Cloudy
7:53 AM 75.9 °F - 71.1 °F 85% 30.03 in 10.0 mi ENE 3.5 mph - N/A   Overcast
8:53 AM 79.0 °F - 71.1 °F 77% 30.03 in 10.0 mi Calm Calm - N/A   Scattered Clouds
9:08 AM 80.1 °F 83.6 °F 71.1 °F 74% 30.04 in 10.0 mi Calm Calm - N/A   Mostly Cloudy
9:51 AM 82.4 °F 87.2 °F 71.6 °F 70% 30.04 in 10.0 mi Variable 3.5 mph - N/A   Mostly Cloudy
9:53 AM 84.0 °F 89.6 °F 72.0 °F 67% 30.03 in 10.0 mi Calm Calm - N/A   Mostly Cloudy
10:42 AM 84.9 °F 91.4 °F 73.0 °F 67% 30.03 in 10.0 mi Calm Calm - N/A   Mostly Cloudy
10:51 AM 86.0 °F 93.4 °F 73.4 °F 66% 30.03 in 10.0 mi Variable 3.5 mph - N/A   Mostly Cloudy
10:53 AM 86.0 °F 93.0 °F 73.0 °F 65% 30.02 in 10.0 mi Variable 4.6 mph - N/A   Mostly Cloudy
11:53 AM 87.1 °F 96.3 °F 75.0 °F 67% 30.01 in 10.0 mi Variable 3.5 mph - N/A   Mostly Cloudy
12:06 PM 88.0 °F 97.5 °F 75.0 °F 65% 30.02 in 10.0 mi Variable 3.5 mph - N/A   Partly Cloudy
12:53 PM 91.0 °F 99.3 °F 73.0 °F 55% 29.99 in 10.0 mi WSW 4.6 mph - N/A   Clear
1:53 PM 93.0 °F 101.9 °F 73.0 °F 52% 29.96 in 10.0 mi Variable 4.6 mph - N/A   Mostly Cloudy
2:53 PM 91.0 °F 98.2 °F 72.0 °F 53% 29.94 in 10.0 mi Variable 3.5 mph - N/A   Scattered Clouds
3:53 PM 90.0 °F 97.9 °F 73.0 °F 57% 29.92 in 10.0 mi Variable 5.8 mph - N/A   Mostly Cloudy
4:12 PM 88.0 °F 96.5 °F 73.9 °F 63% 29.93 in 10.0 mi North 11.5 mph - N/A Thunderstorm Thunderstorm
4:53 PM 82.9 °F 88.0 °F 72.0 °F 69% 29.94 in 10.0 mi North 13.8 mph 23.0 mph N/A Thunderstorm Thunderstorm
5:13 PM 81.0 °F 85.2 °F 72.0 °F 74% 29.95 in 9.0 mi East 11.5 mph - 0.00 in Rain , Thunderstorm Light Rain
5:38 PM 77.0 °F - 73.0 °F 88% 29.99 in 1.8 mi WSW 8.1 mph - 0.07 in Rain , Thunderstorm Heavy Rain
5:48 PM 75.2 °F - 73.4 °F 94% 30.00 in 0.5 mi SE 5.8 mph - 0.32 in Fog , Rain , Thunderstorm Heavy Rain
5:53 PM 75.9 °F - 73.9 °F 94% 29.99 in 0.2 mi North 3.5 mph - 0.53 in Fog , Rain , Thunderstorm Heavy Rain
5:55 PM 75.9 °F - 73.0 °F 91% 30.00 in 0.2 mi NE 5.8 mph - 0.10 in Fog , Rain , Thunderstorm Heavy Thunderstorms and Rain
6:11 PM 77.0 °F - 73.9 °F 90% 30.00 in 2.0 mi NE 10.4 mph - 0.67 in Rain , Thunderstorm Heavy Thunderstorms and Rain
6:24 PM 77.0 °F - 73.4 °F 89% 30.01 in 2.0 mi NNE 13.8 mph - N/A Rain , Thunderstorm Light Thunderstorms and Rain
6:32 PM 77.0 °F - 73.0 °F 88% 30.02 in 2.0 mi ENE 9.2 mph - 0.69 in Rain , Thunderstorm Light Thunderstorms and Rain
6:36 PM 77.0 °F - 73.0 °F 88% 30.02 in 2.0 mi ENE 12.7 mph - 0.70 in Rain , Thunderstorm Light Rain
6:40 PM 77.0 °F - 73.0 °F 88% 30.02 in 2.0 mi East 10.4 mph - 0.70 in Rain Light Rain
6:48 PM 77.0 °F - 73.4 °F 89% 30.02 in 2.0 mi ENE 9.2 mph - 0.70 in Rain , Thunderstorm Light Rain
6:53 PM 75.9 °F - 73.0 °F 91% 30.01 in 2.0 mi ENE 12.7 mph - 0.70 in Thunderstorm Overcast
7:00 PM 77.0 °F - 73.0 °F 88% 30.01 in 10.0 mi East 9.2 mph - N/A   Overcast
7:21 PM 75.9 °F - 73.0 °F 91% 29.99 in 6.0 mi SE 11.5 mph - 0.02 in Rain Light Rain
7:53 PM 75.0 °F - 72.0 °F 90% 29.99 in 10.0 mi ESE 10.4 mph - 0.02 in   Partly Cloudy
8:53 PM 75.9 °F - 71.1 °F 85% 29.99 in 10.0 mi SE 3.5 mph - 0.01 in   Mostly Cloudy
9:53 PM 75.0 °F - 72.0 °F 90% 29.98 in 10.0 mi Calm Calm - N/A   Clear
10:53 PM 75.0 °F - 71.1 °F 87% 30.00 in 10.0 mi NNE 5.8 mph - N/A   Clear
11:53 PM 73.9 °F - 72.0 °F 93% 30.01 in 10.0 mi West 3.5 mph - N/A   Mostly Cloudy